Regional Weather Roundup
Issued by NWS Cleveland, OH

Home | Current Version | Previous Version | Text Only | Print | Product List | Glossary Off
Versions: 1 2 3 4 5 6 7 8 9 10 11 12 13 14 15 16 17 18 19 20 21 22 23 24 25 26 27 28 29 30 31 32 33 34 35 36 37 38 39 40 41 42 43 44 45 46 47 48 49 50

000
ASUS41 KCLE 011810
RWRCLE
OHIO REGIONAL WEATHER ROUNDUP
NATIONAL WEATHER SERVICE WILMINGTON, OH
200 PM EDT MON SEP 01 2014

NOTE: "FAIR" INDICATES FEW OR NO CLOUDS BELOW 12,000 FEET WITH NO
SIGNIFICANT WEATHER AND/OR OBSTRUCTIONS TO VISIBILITY.

OHZ001>008-015>018-024>027-034-035-043-044-011900-
   NORTHWEST OHIO

CITY           SKY/WX    TMP DP  RH WIND       PRES   REMARKS
DEFIANCE       PTSUNNY   84  69  60 S14G25    29.84F
FINDLAY        PTSUNNY   85  69  58 S20G28    29.87F
TOLEDO EXPRESS PTSUNNY   84  69  60 SW10G20   29.84F
TOLEDO METCALF PTSUNNY   86  68  54 SW21G28   29.85F
LIMA           MOSUNNY   84  70  62 S15G21    29.89F
$$

OHZ009>014-019>023-028>033-038-089-011900-
   NORTHEAST OHIO

CITY           SKY/WX    TMP DP  RH WIND       PRES   REMARKS
CLE-HOPKINS    MOSUNNY   82  70  66 S14G21    29.93F
CLE-LAKEFRONT  MOSUNNY   82  67  60 S15G22    29.90F
CUY CO. ARPT   PTSUNNY   79  72  78 S12G24    29.93F
LORAIN-ELYRIA  MOSUNNY   85  70  60 S15       29.91F
ASHTABULA      PTSUNNY   80  69  69 S13       29.94F
AKRON-CANTON   CLOUDY    80  68  66 S9        29.97F
WOOSTER        PTSUNNY   81  70  69 SW13G20   29.96F
MANSFIELD      MOSUNNY   82  69  64 SW18      29.95F
YOUNGSTOWN     CLOUDY    78  68  71 SW10      29.97F
$$

OHZ042-051>053-060>062-070>072-077>081-011900-
  SOUTHWEST OHIO

CITY           SKY/WX    TMP DP  RH WIND       PRES   REMARKS
CINC-COVINGTON PTSUNNY   76  71  85 S6        29.95F
CINC-LUNKEN    HVY RAIN  75  72  90 SW8G24    29.95F FOG
HAMILTON       PTSUNNY   85  73  67 SW9G25    29.94F HX  91
DAYTON         PTSUNNY   84  70  62 S17G24    29.93F
WRIGHT-PAT AFB PTSUNNY   84  73  69 S16G24    29.92F HX  90
DAYTON GENERAL PTSUNNY   83  71  67 SW15G24   29.93F
WILMINGTON     PTSUNNY   80  69  69 SW18      29.96F
$$

OHZ036-037-039>041-045>050-054>059-063>069-073>076-082>088-011900-
  CENTRAL AND SOUTHEAST OHIO

CITY           SKY/WX    TMP DP  RH WIND       PRES   REMARKS
COLUMBUS       CLOUDY    82  71  69 SW12G20   29.96F
OSU AIRPORT    PTSUNNY   81  71  71 S9        29.94F
BOLTON FIELD   PTSUNNY   81  73  78 S15G21    29.96F
RICKENBACK AFB PTSUNNY   82  68  62 S15G22    29.96F
NEWARK         PTSUNNY   80  71  74 SW13G21   29.97F
MARION         PTSUNNY   83  71  67 S16G23    29.93F
LANCASTER      PTSUNNY   79  71  76 SW12      29.99F
ZANESVILLE     LGT RAIN  77  71  82 VRB6      29.98F
NEW PHILLY     MOSUNNY   81  72  74 SW7       29.98S
$$



USA.gov is the U.S. government's official web portal to all federal, state and local government web resources and services.